sat.trackr.live / text

‹ back to catalog

TDRS 7

NORAD 23613 · 1995-035B

PAYLOAD ACTIVE UNKNOWN

§ Identity

Operator
Country
US
Launch date
1995-07-13
Launch site
AFETR
Launch vehicle
Mass (kg)
RCS (m²)
22.39

Purposes: comms

External: N2YO · Heavens-Above · Gunter

§ Orbital elements

Epoch: 2026-09-19T21:05:52.599264Z

Period
1,436.09 min
Inclination
13.2987°
Eccentricity
0.0010789
Mean motion
1.00272064 rev/d
Perigee alt
35,741.0 km
Apogee alt
35,832.0 km
Semi-major
42,164.7 km
B*
0.0000e+0
RAAN
347.5288°
Arg perigee
98.6970°
Mean anomaly
318.2815°
Rev number
11,420

§ Raw data

TDRS 71 23613U 95035B   26262.87908101 -.00000238  00000+0  00000+0 0  99912 23613  13.2987 347.5288 0010789  98.6970 318.2815  1.00272064114206

JSON: /api/v1/satellites/23613 · /tle

For live sub-satellite position, see the globe view (requires WebGL).

§ Visibility from observer

Set your observer location to see the next 7 days of passes ≥ 10°. The values pass through the URL so the page stays shareable.

No JS? Fill the form by hand. The geolocation button needs JavaScript.